VCC B (44431 NORAD) Tracking and Keplerian Element Data

This shows tracking and keplerian element data for the satellite.

Feedback or suggestion? Click here.




ElementValue
Catalog44431
NameVCC B
Epoch Orbit2402
Epoch Day339.0085651
Epoch Year2019
RAAN231.8969
Inclination51.6405
Eccentricity0.000251
Argument of Perigee344.605
Mean Anonmoly15.4864
Mean Motion15.53847516
Decay Rate6.077E-05
L11 44431U 98067QR 19339.00856510 .00006077 00000-0 99957-4 0 9999
L22 44431 51.6405 231.8969 0002510 344.6050 15.4864 15.53847516 24028

Live tracking and technical data element details for VCC B (NORAD 44431). VCC B can be tracked NOW for your location showing map with azimuth and elevation plus other details from your city location.

Track the satellite on the map from your city or location and see movement details for azimuth, elevation, latitude, longitude, range, height, and movement on the map or in text.







IsCatalogInMostPopularTable: catalog: 44431, numindb: 45
Update: records affected: 1



GetName: 44431 VCC B

Hit Count: updated at: Thu, 05 Dec 2019 17:42:55 GMT